Regional Weather Roundup
Issued by NWS

Home | Current Version | Previous Version | Text Only | Print | Product List | Glossary On
Versions: 1 2 3 4 5 6 7 8 9 10 11 12 13 14 15 16 17 18 19 20 21 22 23 24 25 26 27 28 29 30 31 32 33 34 35 36 37 38 39 40 41 42 43 44 45 46 47 48 49 50
000
ASUS43 KMKX 291300
RWRWI

WISCONSIN REGIONAL WEATHER ROUNDUP
NATIONAL WEATHER SERVICE MILWAUKEE/SULLIVAN WI
800 AM CDT SAT AUG 29 2015

NOTE: "FAIR" INDICATES FEW OR NO CLOUDS BELOW 12,000 FEET WITH NO
SIGNIFICANT WEATHER AND/OR OBSTRUCTIONS TO VISIBILITY.

WIZ001-002-006>008-014>016-023>028-291400-
NORTHWEST WISCONSIN

CITY           SKY/WX    TMP DP  RH WIND       PRES   REMARKS
SUPERIOR ARPT  CLOUDY    59  58  95 W6        30.03S
ASHLAND        MOSUNNY   59  59 100 SW8       30.02R
HAYWARD        MOSUNNY   58  55  90 CALM      30.07R
SIREN          MOSUNNY   56  54  95 CALM      30.05S
CUMBERLAND     PTSUNNY   54  52  94 S5        30.06F
RICE LAKE      PTSUNNY   56  54  94 CALM      30.07F
CHETEK         CLOUDY   N/A N/A N/A CALM      30.07S
LADYSMITH      PTSUNNY   56  55  95 SE6       30.07F
EAU CLAIRE     CLOUDY    57  55  93 E5        30.07S
MENOMONIE      CLOUDY    57  56  97 E3        30.08S FOG
NEW RICHMOND   PTSUNNY   54  54  99 CALM      30.07S
OSCEOLA        PTSUNNY   56  56 100 SE3       30.09F
$$

WIZ003>005-009-010-017-018-291400-
NORTH CENTRAL WISCONSIN

CITY           SKY/WX    TMP DP  RH WIND       PRES   REMARKS
MANITOWISH WTR MOSUNNY   56  56 100 SW7       30.03R
ARBOR VITAE    MOSUNNY   57  55  93 S6        30.04S
WOODRUFF       MOSUNNY   57  55  93 S6        30.04S
RHINELANDER    FOG       55  54  96 S9        30.07F VSB 1/2
EAGLE RIVER    MOSUNNY   56  55  97 SW3       30.04F
LAND O LAKES   MOSUNNY   57  54  89 S6        30.04F
PHILLIPS       MOSUNNY   56  55  95 S6        30.04S
TOMAHAWK       FOG       54  53  97 CALM      30.08F VSB 3/4
MEDFORD        PTSUNNY   55  55  99 E6        30.07F FOG
MERRILL        CLOUDY    57  56  98 S3        30.08F
$$

WIZ029-030-035-036-043>047-291400-
CENTRAL WISCONSIN

CITY           SKY/WX    TMP DP  RH WIND       PRES   REMARKS
WAUSAU         CLOUDY    59  56  89 CALM      30.07F
MOSINEE        CLOUDY    57  57 100 CALM      30.11R
MARSHFIELD     CLOUDY    60  56  86 E7        30.08S FOG
STEVENS POINT  CLOUDY    57  56  98 NE3       30.09R FOG
WAUPACA        CLOUDY    61  60  97 CALM      30.07F FOG
WAUTOMA        CLOUDY    61  61 100 CALM      30.06F FOG
WISC RAPIDS    CLOUDY    60  57  89 NE6       30.08R
CAMP DOUGLAS   NOT AVBL
$$

WIZ011>013-019>022-031-037>040-048>050-291400-
NORTHEAST WISCONSIN

CITY           SKY/WX    TMP DP  RH WIND       PRES   REMARKS
ANTIGO         CLOUDY    56  55  97 CALM      30.09F
SHAWANO        CLOUDY    61  59  93 CALM      30.09S FOG
OCONTO         CLOUDY    58  58 100 CALM      30.08F
STURGEON BAY   CLOUDY    61  55  82 SE3       30.11S
GREEN BAY      CLOUDY    61  59  93 E6        30.08S FOG
MANITOWOC      NOT AVBL
APPLETON       CLOUDY    59  59 100 VRB6      30.06F FOG
CLINTONVILLE   CLOUDY    59  57  94 CALM      30.08S FOG
OSHKOSH        CLOUDY    60  58  92 E8        30.06F
$$

WIZ032>034-041-042-053>061-291400-
SOUTHWEST WISCONSIN

CITY           SKY/WX    TMP DP  RH WIND       PRES   REMARKS
LA CROSSE      CLOUDY    61  58  90 CALM      30.04S
SPARTA         CLOUDY    59  57  94 NE6       30.06R
VIROQUA        CLOUDY    58  58 100 NE6       30.04R
BOSCOBEL       CLOUDY    63  61  93 CALM      30.01R FOG
PRAIRIE DU CHI CLOUDY    63  62  96 CALM      30.00R FOG
PLATTEVILLE    CLOUDY    64  64  99 CALM      30.00R
$$

WIZ056-057-062-063-064-067-068-291400-
SOUTH CENTRAL WISCONSIN

CITY           SKY/WX    TMP DP  RH WIND       PRES   REMARKS
REEDSBURG      CLOUDY    60  60  99 NE6       30.02R FOG
BARABOO/DELLS  DRIZZLE   60  58  95 E10       30.03R
LONE ROCK      CLOUDY    64  63  94 NE5       30.01R FOG
MINERAL POINT  CLOUDY    64  63  94 E3        30.00R FOG
MADISON        DRIZZLE   62  61  96 E6        30.02R FOG
MIDDLETON      CLOUDY    64  64 100 E6        30.02R
WATERTOWN      DRIZZLE   60  60 100 E5        30.03S
MONROE         CLOUDY    61  61 100 SE7       30.00R FOG
JANESVILLE     NOT AVBL
$$

WIZ051-052-058>065-066-070>072-291400-
SOUTHEAST WISCONSIN

CITY           SKY/WX    TMP DP  RH WIND       PRES   REMARKS
MILWAUKEE      LGT RAIN  60  59  96 SE5       30.06F FOG
WAUKESHA       DRZL/FOG  57  57 100 E3        30.06F VSB 1
MILWAUKEE/TIMM CLOUDY    57  55  94 CALM      30.06F FOG
RACINE         LGT RAIN  61  59  93 SE8       30.08S FOG
BURLINGTON     RAIN      60  59  97 E7        30.05S
KENOSHA        RAIN      62  60  93 SE8       30.07S FOG
FOND DU LAC    LGT RAIN  61  59  93 E5        30.06R FOG
SHEBOYGAN      CLOUDY    58  58 100 VRB3      30.08S FOG
WEST BEND      DRIZZLE   59  55  88 CALM      30.06F
JUNEAU         RAIN      59  58  98 E9        30.05S
$$

LSZ147-162-291400-
LAKE SUPERIOR

STATION/POSITION TIME  TEMP    WIND        PRES    WAVE
                       AIR SEA DIR/SP/G            HT/PER
                 (UTC) (F)     (DEG/KT/KT) (MB)    (FT/S)
W MID LAKE BUOY  1150   56 54  270/ 14/ 16 1015.0R   3/ 4
DEVILS ISLAND    1200   57     260/ 17/ 21 1015.6R
PORT WING        1240   60     200/  5/  8 1016.6R
SAXON HARBOR     1240   61     290/  2/  7 1015.6R
$$

LMZ867-665-643>646-291400-
LAKE MICHIGAN

STATION/POSITION TIME  TEMP    WIND        PRES    WAVE
                       AIR SEA DIR/SP/G            HT/PER
                 (UTC) (F)     (DEG/KT/KT) (MB)    (FT/S)
CHAMBERS ISLAND  1200   59     150/  3/  5 1018.6F
S GREEN BAY BUOY 1200   60 62  160/  4/  4 1020.4R
N MID LAKE BUOY  1150   61 64  200/ 12/ 14 1018.6F   2/ 4
NORTHPORT PIER   1200   60     150/  4/  7 1018.6F
SISTER BAY       1219   61     190/  7/  9   N/A
ALGOMA LAKESHORE 1214             CALM       N/A
SHEBOYGAN LAKESH 1200   54      50/  5/  5 1018.8F
PORT WASHINGTON  1240   57      40/  3/  8 1018.6F
ATWATER BUOY     1200   54 47   50/  2/  6 1019.5R
MILWAUKEE LAKESH 1200   55      50/  9/  9   N/A
S MID LAKE BUOY  1150   68 68  170/ 12/ 14 1017.9R   2/ 4
KENOSHA   LAKESH 1200   58      CALM  /  2 1018.3R
$$

TC  - TEMPERATURE IN CELSIUS
VSB - VISIBILITY IN STATUTE MILES
WCI - WIND CHILL INDEX
HX  - HEAT INDEX




USA.gov is the U.S. government's official web portal to all federal, state and local government web resources and services.